Flag for Brazil Weather past 2 weeks in Rio de Janeiro, Rio de Janeiro, Brazil

Now
64 °F

Passing clouds.


Feels Like: 64 °F
Forecast: 59 / 79 °F
Wind: 5 mph from Northeast

Location: Rio De Janeiro Airport

Current Time: Jul 31, 2014 at 8:37:54 AM

Latest Report: Jul 31, 2014 at 8:00 AM


Visibility: N/A

Pressure: 30.18 "Hg

Humidity: 88%

Dew point: 61 °F

Location of Rio de JaneiroLocation

Historic Weather in Rio de Janeiro — Graph

°F

Rio de Janeiro temperature yesterday

Maximum temperature yesterday: 73 °F (at 2:00 PM)
Minimum temperature yesterday: 63 °F (at 7:00 AM)
Average temperature yesterday: 68 °F

Past Weeks' High & Low Weather Summary

 TemperatureHumidityPressure
High88 °F (Jul 18, 12:00 PM)100% (Jul 27, 2:00 PM)30.42 "Hg (Jul 27, 2:00 PM)
Low63 °F (Jul 30, 7:00 AM)37% (Jul 24, 1:00 PM)29.86 "Hg (Jul 24, 4:00 PM)
Average71 °F74%30.17 "Hg
* Reported Jul 16 7:00 AM — Jul 31 7:00 AM, Rio de Janeiro, Weather by CustomWeather, © 2014

Note: Actual official high and low records may vary slightly from our data, if they occured in-between our weather recording intervals... More about our weather records

Advertising

Rio de Janeiro weather history for previous 24 hours

 ConditionsComfort  
Time TempWeatherWind HumidityBarometerVisibility
7:00 AM
Jul 31
64 °FPassing clouds.6 mph88%30.15 "HgN/A
6:00 AM63 °FPassing clouds.3 mph88%30.15 "HgN/A
11:00 PM
Jul 30
68 °FClear.2 mph73%30.24 "Hg10 mi
10:00 PM68 °FClear.No wind73%30.24 "Hg10 mi
8:00 PM68 °FPassing clouds.5 mph83%30.24 "HgN/A
7:00 PM68 °FPassing clouds.13 mph88%30.24 "HgN/A
6:00 PM68 °FPassing clouds.14 mph83%30.21 "HgN/A
5:00 PM70 °FPassing clouds.10 mph78%30.21 "HgN/A
4:00 PM72 °FPassing clouds.12 mph69%30.21 "HgN/A
3:00 PM72 °FPassing clouds.12 mph69%30.21 "HgN/A
2:00 PM73 °FPassing clouds.9 mph65%30.24 "HgN/A
1:00 PM72 °FPassing clouds.5 mph69%30.27 "HgN/A
12:00 PM72 °FPassing clouds.6 mph65%30.30 "HgN/A
11:00 AM70 °FPassing clouds.7 mph69%30.33 "HgN/A
10:00 AM66 °FPassing clouds.8 mph83%30.36 "HgN/A
9:00 AM66 °FSunny.7 mph88%30.36 "Hg10 mi
8:00 AM64 °FSunny.3 mph88%30.36 "Hg10 mi
Weather by CustomWeather, © 2014

See weather overviewHow to use our weather pages